Wind_Speed
23 24 25 27 30 33 37 40 43 46 50 53 56 60 63 65 68 70 71 73 74 74 74 74 73 71 70 70 71 71 69 68 66 66 67 68 69 68 68 71 71 66 62 61 60 61 62 61 59 59 60 61 61 59 61 61 55 49 49 50 51 51 52 55 58 58 56 55 53 51 50 50 50 49 48 47 45 44 43 41 40 40 41 42 41
22 23 26 29 33 37 41 44 47 51 54 57 61 64 67 70 72 74 75 76 75 73 70 67 65 63 63 63 62 59 55 53 52 51 51 53 55 56 55 57 61 56 50 49 50 53 56 58 58 59 60 62 63 62 60 60 58 53 50 51 53 53 52 53 56 59 59 57 55 55 55 54 54 54 54 53 51 49 48 46 45 43 42 42 42
24 26 30 34 37 41 45 48 51 55 59 62 65 68 71 73 73 74 74 72 68 64 59 56 54 52 51 50 49 47 45 43 42 42 43 43 44 45 45 45 48 46 41 38 41 46 51 55 57 57 60 61 63 65 64 62 60 57 53 50 50 52 54 54 55 57 59 57 55 57 58 57 58 59 59 58 56 55 53 51 48 46 44 43 43
28 31 34 38 42 45 49 53 56 60 64 67 69 72 72 72 73 72 67 60 55 51 47 44 43 42 41 40 40 41 42 41 42 42 42 44 44 44 44 41 41 40 35 32 34 38 43 50 55 57 59 61 62 64 65 65 63 60 57 53 50 50 52 55 58 58 59 59 58 58 56 57 61 62 61 61 60 59 57 54 51 48 46 44 44
31 35 39 42 46 50 54 59 63 66 68 69 69 68 68 67 67 62 54 47 44 42 39 37 37 37 38 37 38 40 41 41 42 42 42 44 45 45 44 42 41 40 35 32 32 33 36 42 49 55 58 60 61 62 64 66 67 65 61 57 53 51 51 53 57 60 62 62 62 59 57 59 61 61 61 62 62 61 60 57 54 51 48 46 45
35 39 43 48 53 57 61 65 67 68 68 68 66 65 64 61 56 49 43 40 38 37 35 35 36 37 37 38 39 40 40 39 38 39 39 40 40 40 40 40 40 40 37 34 33 33 34 36 41 49 55 58 59 61 63 65 66 67 66 63 58 53 50 51 54 58 61 63 64 64 61 58 58 59 62 63 63 62 62 60 58 54 52 49 48
39 44 49 54 59 62 65 66 67 69 68 66 63 60 57 52 45 41 38 37 36 36 36 36 37 37 37 37 37 38 39 38 37 36 37 38 39 38 37 38 39 39 38 36 35 34 34 34 36 40 48 54 57 58 61 63 65 66 67 67 65 60 54 51 52 54 56 60 64 65 64 59 56 56 57 60 62 63 63 62 60 57 55 53 51
45 50 55 60 64 65 65 67 69 69 66 61 55 51 48 44 38 35 36 36 38 40 40 40 40 38 36 35 35 36 37 38 37 36 36 38 39 39 39 40 40 40 40 38 36 35 35 34 34 35 39 46 52 55 58 60 62 63 65 66 67 67 63 58 54 52 52 55 59 63 64 63 61 58 55 56 58 61 62 61 60 58 57 56 54
51 56 62 65 66 66 67 69 69 65 58 52 46 42 41 39 35 34 35 36 38 40 42 43 42 39 36 35 35 36 37 38 38 37 37 39 40 41 42 42 42 42 42 41 38 36 35 35 35 34 35 38 45 50 55 57 59 61 62 64 65 66 66 64 60 55 52 51 53 57 62 64 64 63 60 58 59 61 63 64 62 61 60 59 57
56 62 66 67 68 68 70 70 65 57 52 46 41 37 36 36 35 35 35 35 37 37 39 41 42 40 37 37 37 38 39 40 40 40 39 40 41 42 44 44 44 44 44 43 42 40 37 36 36 36 34 34 37 43 49 54 58 60 59 59 61 62 62 62 61 59 56 53 51 51 56 61 65 66 64 61 62 64 65 66 65 64 64 62 60
62 67 70 69 69 71 72 68 59 52 48 43 38 33 33 35 37 38 37 36 36 33 34 39 41 40 39 38 38 39 41 41 42 43 43 44 44 45 46 46 46 46 46 45 44 43 42 39 37 36 34 33 34 37 42 47 51 56 58 57 57 58 59 59 59 58 57 55 53 51 52 54 59 64 65 63 63 64 65 66 66 66 66 65 63
68 71 71 70 71 72 68 61 51 46 43 39 36 34 34 36 37 37 36 36 33 29 32 37 39 39 38 39 40 41 42 43 44 45 45 46 47 47 47 46 47 47 47 47 46 45 43 40 38 36 34 32 32 33 35 39 43 47 52 55 56 56 57 58 57 57 56 56 54 53 53 53 54 56 60 62 62 62 62 64 65 66 67 68 67
71 70 70 71 72 67 58 50 44 40 39 36 36 36 36 37 37 37 36 35 32 29 32 36 38 37 35 37 40 42 43 43 45 45 46 45 46 47 47 46 46 47 47 47 46 44 41 40 39 37 34 31 31 30 31 33 37 40 45 49 53 55 56 57 57 56 55 56 55 53 51 53 54 53 53 57 60 61 61 61 62 63 64 65 67
69 68 70 70 66 56 48 44 42 40 39 37 37 38 40 41 40 41 41 38 33 32 34 38 41 38 34 35 37 40 43 44 45 45 45 44 44 45 46 46 45 45 45 45 44 42 39 39 40 39 35 32 30 30 30 31 32 35 39 43 48 52 54 56 57 57 55 55 56 55 52 51 52 54 53 53 55 59 61 60 60 60 60 62 64
66 68 69 65 55 46 42 42 43 46 45 41 39 39 39 40 41 43 45 43 40 38 39 41 43 41 37 36 36 38 42 44 45 45 44 44 43 43 45 46 45 44 44 43 43 42 41 40 40 39 37 34 32 30 30 30 31 32 34 38 43 47 52 55 57 58 57 55 54 55 54 51 50 51 53 53 53 55 57 58 59 59 59 60 62
67 69 66 58 48 42 40 45 50 51 47 43 40 38 38 38 38 39 41 43 44 45 46 47 47 46 43 37 34 37 41 44 47 47 46 45 44 42 43 46 46 45 44 43 42 43 43 42 41 40 38 36 34 31 30 29 30 31 31 33 37 41 46 51 54 58 59 57 55 55 55 53 51 49 50 52 53 53 54 55 56 57 58 59 61
68 67 61 53 46 41 43 51 54 51 47 44 41 38 38 38 38 38 38 39 41 42 45 46 45 45 43 35 33 36 40 44 48 49 49 48 44 41 42 45 47 47 45 44 42 41 43 43 42 41 40 38 36 33 31 30 29 31 32 32 34 37 41 45 48 53 58 60 58 56 55 53 52 51 49 49 50 52 53 54 55 56 56 57 59
66 63 57 50 44 43 49 55 54 52 51 48 44 41 40 40 41 40 40 41 41 40 39 38 37 38 36 34 34 37 40 45 48 51 53 51 45 40 41 44 47 48 46 45 43 41 40 41 41 41 41 40 38 35 33 32 31 30 31 33 34 34 37 41 44 47 53 59 61 59 56 53 52 52 52 50 49 50 51 52 53 53 54 55 55
62 59 55 48 44 47 54 57 55 55 54 51 49 46 45 44 44 43 41 41 42 41 39 37 36 36 36 37 40 43 45 48 52 54 55 52 45 40 40 41 44 48 47 44 43 40 39 40 40 40 41 40 40 37 35 34 33 31 31 32 33 34 35 39 42 43 45 52 59 61 59 55 52 52 52 51 50 50 50 51 51 51 51 52 52
58 56 52 47 46 51 56 57 57 57 56 54 54 52 50 48 47 47 45 43 41 42 41 38 36 38 40 42 45 48 51 53 55 57 57 53 45 39 39 40 43 46 47 45 41 38 38 40 39 39 40 40 40 39 36 35 34 32 32 32 33 34 36 37 39 41 41 45 53 59 60 57 52 51 51 51 51 51 50 50 51 51 51 50 50
57 54 50 47 48 53 57 57 57 57 57 56 56 57 55 52 51 49 47 47 46 46 44 41 37 37 42 45 48 51 54 57 59 59 58 54 46 40 38 40 42 44 45 44 41 37 37 39 40 39 39 39 40 38 35 34 35 34 33 32 32 34 36 36 37 38 40 41 46 54 58 56 53 51 50 49 50 51 51 51 51 51 51 50 50
56 53 49 48 50 55 58 57 57 57 56 56 58 59 57 55 55 52 49 49 50 51 50 45 40 38 39 44 48 52 55 58 59 59 57 53 47 43 42 42 42 42 43 43 40 37 37 38 40 40 39 39 40 38 36 34 34 34 33 32 31 32 33 35 36 37 38 39 42 49 53 53 51 49 48 47 47 49 51 52 53 52 51 51 50
55 52 50 49 52 56 58 57 57 57 56 58 61 61 60 59 56 54 53 52 53 55 54 49 44 40 38 40 44 48 53 57 58 58 55 51 49 48 46 44 42 40 40 41 39 37 36 37 39 41 41 40 39 39 38 37 34 33 33 32 30 29 29 30 33 35 36 37 39 45 51 51 48 46 45 44 44 46 48 50 52 53 53 52 51
54 52 50 51 55 57 57 57 57 57 58 61 63 62 63 64 60 55 52 53 55 57 55 50 44 40 38 37 39 43 48 54 55 54 52 51 50 48 46 43 41 38 39 40 39 37 36 36 38 41 42 41 39 40 39 37 35 34 34 33 32 30 28 26 27 31 34 36 38 42 48 50 48 45 42 40 40 42 44 47 49 51 53 53 52
54 51 51 54 57 57 57 57 57 58 60 64 64 64 65 66 63 59 55 55 57 57 54 48 43 40 39 37 38 40 42 46 48 48 48 49 47 45 43 40 38 37 38 38 38 36 35 36 37 40 43 43 43 42 40 38 37 36 35 35 34 34 32 27 25 26 29 33 36 39 44 47 48 47 44 41 39 39 40 42 44 47 50 52 51
51 51 53 55 57 57 56 56 57 59 62 65 66 66 68 68 64 60 58 58 59 56 51 47 43 41 39 37 37 37 37 38 39 40 42 43 41 39 37 36 37 36 36 37 37 36 35 35 36 39 43 46 45 44 43 42 42 41 38 36 35 35 34 30 28 27 27 28 32 36 39 43 46 48 47 45 43 41 40 39 39 41 44 47 48
50 52 54 56 57 56 55 56 58 60 63 66 67 69 71 70 65 60 59 60 58 53 47 45 43 41 38 36 35 34 33 34 33 34 36 36 34 33 33 34 35 34 34 35 36 35 34 33 34 36 40 45 46 46 45 45 46 45 41 36 33 33 33 31 30 29 27 26 28 32 35 39 42 46 47 47 46 45 44 43 41 40 41 42 43
51 54 56 58 56 55 56 57 59 62 66 67 69 70 72 72 67 62 61 60 56 49 44 43 42 39 37 35 34 32 30 29 29 29 30 30 30 30 32 32 32 31 31 33 34 34 33 32 33 34 36 41 44 46 47 47 46 45 42 37 34 32 32 31 30 29 28 27 27 28 31 34 37 40 43 45 45 45 45 46 45 44 43 42 42
54 56 56 57 56 56 58 60 62 66 68 70 71 71 73 72 66 62 61 59 52 46 43 41 39 36 34 33 31 30 27 24 24 25 25 25 25 26 27 27 27 28 29 30 31 32 33 33 33 34 35 38 40 43 46 47 46 44 40 38 36 34 32 32 31 30 29 27 27 27 29 30 31 34 37 40 41 42 43 44 44 44 44 43 43
56 57 57 57 58 58 59 62 65 67 70 72 72 73 74 69 63 62 60 54 47 43 41 39 36 33 31 30 28 25 22 19 19 19 19 20 19 19 20 21 22 24 25 27 28 30 32 33 33 34 34 35 37 39 43 46 46 45 43 40 38 36 34 33 33 32 30 28 27 27 27 27 27 30 33 36 38 39 41 41 42 41 41 41 42
57 57 57 58 57 56 58 62 65 68 70 71 70 73 72 65 60 60 56 49 44 42 39 36 34 31 27 25 23 20 16 13 13 13 14 14 13 14 15 17 18 20 21 23 25 27 30 31 31 31 31 32 34 35 39 43 46 46 45 43 40 38 36 34 33 33 32 30 28 26 26 26 26 28 31 34 36 37 38 39 40 40 40 39 39
58 56 55 55 53 54 57 62 65 68 69 69 71 72 66 60 58 56 50 44 42 40 38 35 31 28 24 20 17 14 10 8 8 9 9 9 9 10 12 13 14 15 17 19 22 23 25 26 26 26 26 27 28 30 34 39 43 45 45 43 41 39 37 35 33 32 31 31 29 27 26 27 27 28 29 32 35 36 36 37 38 39 39 38 38
55 54 51 51 52 54 58 62 67 69 69 69 71 67 59 57 56 50 44 42 40 37 35 32 28 24 20 17 13 9 6 4 3 4 4 4 4 5 7 8 9 11 12 13 13 13 12 13 14 15 16 17 19 23 27 32 37 41 43 42 41 40 38 36 34 31 29 29 28 26 25 26 27 27 29 32 33 34 35 35 36 36 36 37 37
52 53 52 53 57 58 60 65 68 69 69 70 66 59 54 53 49 43 39 38 37 34 30 27 24 20 17 14 11 8 6 4 3 2 2 2 1 1 3 4 4 4 5 5 5 5 4 4 4 4 5 6 8 12 17 22 29 35 38 39 39 39 37 36 34 31 29 28 26 25 24 25 25 27 29 31 32 33 33 33 33 34 34 35 36
54 56 56 59 62 62 64 68 69 69 68 64 57 53 51 48 42 37 36 35 33 29 25 23 21 18 15 13 10 9 9 8 7 6 6 6 5 4 4 6 8 10 10 9 9 7 6 5 5 4 3 4 3 3 5 10 16 23 30 33 35 36 36 36 35 33 30 29 27 26 26 25 26 27 30 31 32 31 31 32 32 32 32 33 34
58 59 59 62 63 65 67 67 66 65 61 54 51 50 48 41 35 33 33 31 28 24 22 21 19 17 15 13 12 12 11 11 10 9 9 9 9 9 11 13 13 12 9 8 8 7 5 4 4 2 2 2 2 3 3 3 6 11 17 22 26 28 30 31 31 30 29 29 29 28 28 27 28 29 30 31 31 31 31 32 32 32 33 33 33
60 60 61 63 64 64 63 61 59 56 51 47 47 46 41 34 30 30 29 26 23 22 21 20 18 16 14 14 14 13 13 12 12 13 13 13 12 12 13 14 12 9 6 6 6 5 4 5 5 4 5 5 5 6 7 8 8 9 11 15 19 22 24 26 27 28 29 29 29 29 29 29 29 29 30 31 31 31 32 32 32 32 33 34 34
61 62 62 62 60 57 54 52 49 46 44 45 44 39 32 28 28 28 26 22 20 20 19 19 17 16 15 14 14 14 14 15 14 14 14 14 13 13 13 11 8 5 4 4 5 5 4 4 4 5 5 6 7 8 9 11 13 13 14 17 19 22 24 26 28 29 29 29 29 29 29 29 29 29 30 31 32 33 34 33 32 32 33 34 33
57 56 55 54 51 49 46 44 43 42 43 42 37 31 27 26 27 26 22 19 18 18 18 17 16 16 15 15 15 15 16 15 14 13 13 13 12 11 10 8 5 3 3 3 5 5 5 5 5 6 7 7 8 9 11 12 13 15 18 20 22 24 26 28 29 30 30 30 30 29 29 29 29 29 30 32 32 34 35 34 33 33 34 33 31
48 47 46 46 44 43 41 41 41 41 40 35 29 26 25 25 25 23 19 16 15 16 16 16 16 16 15 15 16 16 15 14 14 13 12 11 10 9 8 6 4 3 1 0 2 3 4 5 7 8 9 10 10 11 12 14 15 17 19 21 22 24 26 27 29 30 31 32 31 31 30 30 30 30 31 32 32 33 34 33 33 35 35 33 32
44 43 42 40 40 39 39 39 39 37 33 28 25 24 25 24 24 21 16 14 14 14 15 15 15 15 15 15 15 14 14 14 13 13 12 11 9 8 7 5 4 2 1 2 3 4 4 6 8 11 12 13 14 15 15 16 17 19 21 23 24 26 27 28 29 30 31 32 32 32 32 31 31 31 31 32 32 33 33 33 34 35 35 35 36
41 40 40 39 40 38 37 37 34 31 27 25 23 24 24 24 22 19 14 12 12 12 13 14 14 14 14 14 13 13 12 12 11 10 9 8 7 6 4 4 5 4 4 3 4 5 7 8 10 13 14 14 16 17 18 20 21 22 24 25 26 27 28 29 30 31 31 32 32 32 31 31 31 31 32 32 32 32 33 34 35 37 37 37 38
42 41 41 40 39 37 35 33 29 26 24 23 23 24 24 23 21 17 13 11 11 10 11 13 13 13 13 12 11 10 10 9 8 8 8 7 6 6 6 6 7 7 7 7 8 9 11 13 14 15 16 17 18 19 20 22 23 24 25 26 27 27 28 29 31 32 32 33 34 34 34 33 33 32 32 32 31 31 33 34 35 37 37 37 38
43 42 41 39 37 33 30 27 25 24 24 24 24 24 23 21 19 15 11 10 10 9 10 11 11 11 11 9 8 8 7 6 6 7 7 6 7 7 7 7 9 10 10 11 12 14 16 18 19 19 19 20 21 22 22 23 24 25 26 26 27 29 30 32 34 35 35 36 35 35 35 36 36 36 35 34 33 32 34 36 38 38 36 35 36
42 40 39 36 34 30 26 23 23 23 24 25 25 24 22 20 18 14 10 8 9 8 8 8 9 9 9 9 9 8 7 7 7 7 7 6 6 6 7 8 10 12 13 15 18 20 21 21 21 21 20 19 20 20 21 23 24 25 26 28 29 30 31 32 33 34 35 36 35 34 34 34 35 37 37 37 36 37 37 39 39 37 34 35 37
42 39 37 34 30 26 23 22 22 23 23 24 24 23 21 19 17 14 9 8 8 8 7 6 5 6 7 8 8 7 7 8 8 8 9 9 6 6 7 10 13 15 18 21 22 21 20 19 18 17 15 14 14 15 16 17 18 19 20 21 21 20 19 19 20 22 25 28 29 29 29 29 31 33 34 35 34 34 34 34 33 32 34 36 38
41 39 35 31 28 24 22 22 22 23 24 24 24 23 21 19 17 13 9 8 7 8 7 6 5 5 6 7 7 7 8 9 10 9 11 12 11 9 9 11 14 18 21 23 21 18 16 13 10 8 8 7 6 7 8 9 10 10 11 10 9 7 7 8 9 12 14 16 18 19 20 22 24 25 26 26 27 27 27 27 29 31 32 32 31
38 35 31 28 25 23 23 23 24 24 25 25 24 23 21 18 16 12 9 7 7 8 9 8 7 6 6 7 8 9 10 12 13 12 12 12 12 12 12 14 18 21 23 21 18 17 16 14 12 12 10 8 6 4 3 3 4 4 4 4 4 3 3 4 4 5 6 7 9 10 11 12 14 15 17 19 20 22 24 25 27 27 25 24 24
36 32 29 26 24 23 23 24 25 26 26 25 25 23 21 18 15 12 9 8 8 8 8 8 7 6 5 7 9 10 11 11 12 13 14 14 12 11 13 16 21 24 24 23 21 19 20 19 17 16 13 9 7 7 6 6 5 5 3 2 2 2 3 4 4 5 6 7 7 8 9 10 11 12 14 16 17 19 21 22 22 21 20 21 22
33 30 27 24 23 23 23 24 25 26 26 25 25 23 21 19 15 12 10 9 9 9 9 8 7 6 6 7 8 8 10 11 11 11 13 14 14 13 13 17 21 23 24 24 22 20 20 19 16 15 13 10 8 7 7 7 6 6 5 4 3 3 3 5 6 7 9 10 11 12 12 12 13 13 13 12 13 14 16 17 18 18 19 19 20
31 28 25 23 22 22 22 23 25 26 26 26 24 23 21 19 16 13 11 10 10 10 10 9 9 7 7 8 8 9 11 12 10 9 9 10 12 15 16 18 19 21 22 24 21 18 17 17 15 13 12 10 9 8 7 6 6 5 4 4 4 5 4 4 6 8 10 12 13 14 14 13 13 13 12 11 11 11 12 14 15 15 15 16 16
Wind_Direction
276 279 282 285 289 293 296 299 301 301 302 302 302 302 302 303 303 303 303 302 302 303 304 304 303 303 303 302 301 299 296 293 290 286 283 281 280 279 278 277 276 276 274 271 268 265 262 260 256 251 249 250 251 250 248 246 242 239 239 236 237 239 240 242 243 244 244 237 230 229 232 234 235 236 236 236 234 234 233 233 233 232 233 234 232
274 280 285 291 295 299 301 302 303 303 303 304 304 303 303 304 304 303 304 304 305 306 306 305 304 303 302 301 299 297 294 291 287 285 282 280 279 278 275 273 272 272 270 267 262 259 257 255 253 248 245 244 247 248 248 248 244 238 237 236 234 235 236 238 240 242 242 240 235 230 228 230 233 236 237 237 237 235 233 232 232 231 231 232 232
280 287 293 298 301 303 304 304 306 306 307 307 306 306 306 307 307 307 309 310 309 308 306 304 302 300 299 297 294 292 289 286 282 280 277 276 276 276 274 270 268 266 265 262 256 251 249 248 247 244 241 239 240 243 245 246 245 240 236 236 234 233 233 233 236 239 241 241 239 232 228 230 232 235 238 240 241 239 236 233 232 231 231 231 231
289 295 299 302 304 306 307 308 309 310 311 310 309 309 309 310 311 311 312 311 309 307 306 304 301 297 295 292 290 288 286 284 281 278 274 272 272 274 274 272 270 268 263 259 256 251 247 243 242 240 237 236 236 237 240 242 244 241 237 234 233 233 232 232 232 235 237 239 238 234 232 231 231 234 239 241 242 242 241 237 234 232 231 231 231
299 302 305 307 309 311 312 313 314 314 314 313 313 312 312 314 314 313 312 309 308 308 307 305 301 296 293 290 289 287 285 283 280 276 273 272 271 271 271 271 271 271 267 261 259 257 253 247 243 240 237 235 235 234 235 237 239 241 239 235 232 232 233 234 233 233 234 236 236 235 234 234 235 236 236 238 240 243 244 242 239 235 233 233 232
305 308 311 314 316 317 317 318 318 317 315 314 314 314 314 315 314 312 311 310 309 308 305 302 301 298 295 293 292 291 289 284 279 275 273 273 274 273 270 268 269 270 270 267 265 262 259 254 248 245 241 238 236 235 234 234 235 237 238 237 233 231 231 234 234 234 234 234 234 233 232 235 239 239 236 235 238 241 242 242 241 239 236 235 233
308 312 315 318 320 321 321 320 319 317 316 314 314 314 314 313 311 311 309 307 305 305 303 301 300 300 298 296 295 294 291 286 282 281 278 276 275 275 272 270 269 270 271 270 269 267 262 259 255 250 247 243 240 238 236 234 234 234 236 236 235 233 231 232 233 234 235 235 234 233 232 232 234 236 236 236 237 238 240 241 242 240 238 237 235
315 317 319 321 323 323 322 320 318 317 316 315 315 314 314 312 310 307 303 301 301 302 303 301 299 298 297 296 294 293 292 288 285 282 280 278 276 274 273 272 270 270 271 271 271 270 265 261 258 255 252 248 244 242 239 237 236 235 235 236 236 235 234 233 233 234 236 236 235 235 234 233 232 234 235 235 235 236 237 239 241 241 241 239 238
319 321 323 323 323 322 321 320 318 317 317 317 316 314 313 311 308 304 301 300 300 301 302 302 299 296 293 292 290 289 289 287 285 282 280 279 277 276 274 273 272 271 271 271 272 273 269 263 259 257 254 251 249 246 243 241 239 238 237 236 236 236 235 235 234 234 235 237 236 236 235 234 234 234 234 234 234 233 234 235 237 239 240 240 239
318 321 323 322 322 321 320 320 318 318 319 318 314 312 312 310 305 302 301 301 302 304 304 301 299 296 292 290 289 289 287 285 284 283 281 279 278 277 276 274 273 273 273 273 272 274 273 266 260 257 254 251 250 249 247 245 243 241 239 238 237 236 236 236 235 234 234 235 236 237 236 235 234 234 234 235 234 233 233 234 235 236 239 240 240
322 322 322 321 320 319 318 318 318 317 318 316 312 312 312 307 304 303 303 303 303 303 303 300 298 297 293 290 291 291 290 288 285 284 283 282 280 278 276 274 273 273 273 273 273 275 274 266 260 257 253 251 249 249 249 249 247 245 243 241 239 238 236 235 234 234 233 232 234 236 237 236 236 237 235 235 236 235 234 235 236 237 239 241 241
324 321 319 318 317 317 317 317 317 318 318 314 311 310 308 306 306 306 305 305 303 299 299 297 294 295 293 292 293 294 294 291 287 285 284 284 283 281 277 274 273 272 272 273 273 274 272 264 258 256 254 251 248 248 252 253 251 249 246 243 240 238 237 235 234 233 232 231 231 234 237 237 237 238 238 237 237 237 238 238 238 238 239 240 241
320 318 317 318 318 318 316 315 315 320 322 319 314 310 306 304 303 302 300 303 302 295 292 289 287 291 294 294 294 296 296 293 288 285 284 284 282 281 279 276 274 271 271 272 273 273 268 260 257 256 255 251 247 247 251 254 254 251 248 245 242 239 237 236 234 232 231 230 229 231 235 237 237 238 238 239 238 236 237 239 240 240 240 240 241
318 318 320 321 321 319 316 313 315 320 323 322 319 315 309 304 300 298 296 297 296 289 283 280 280 284 291 293 291 293 295 293 288 284 282 281 279 278 280 279 277 274 271 270 270 270 264 258 257 256 254 251 249 248 250 254 255 253 249 247 245 241 239 237 235 232 231 230 229 229 232 234 236 236 236 238 240 238 237 238 240 242 242 242 242
320 321 323 323 322 320 318 318 319 321 322 322 320 317 315 310 305 300 296 292 289 284 280 278 280 284 290 290 286 287 291 291 288 284 281 279 276 275 278 279 278 276 273 269 267 267 263 258 257 256 253 251 250 249 251 255 256 254 251 248 247 245 242 240 237 234 232 230 229 229 230 233 233 234 235 236 239 240 239 239 241 244 245 246 245
322 323 324 324 323 323 323 325 325 324 322 320 318 316 317 317 314 309 303 297 291 286 282 280 282 285 287 286 281 282 285 285 285 284 280 277 274 273 275 277 277 275 273 269 266 264 262 260 258 256 253 249 248 249 251 255 256 255 254 252 250 248 245 243 240 236 233 231 231 229 230 232 232 232 233 234 237 239 241 241 241 243 246 247 247
323 325 325 324 325 328 329 328 327 326 324 323 321 318 317 319 318 316 313 310 304 297 291 286 283 282 282 279 276 278 280 280 280 280 277 274 271 270 271 274 276 274 272 270 267 264 262 260 257 255 252 247 246 249 250 253 255 255 255 255 254 252 249 246 243 240 236 233 232 230 229 231 232 232 232 233 235 238 240 241 242 243 245 247 248
325 326 326 326 329 330 329 329 329 329 329 327 326 323 320 319 319 318 318 319 318 314 306 296 286 281 277 271 267 269 270 271 273 273 273 271 269 268 268 271 274 274 272 270 268 267 263 259 256 254 251 246 244 245 249 252 254 255 256 257 258 256 253 249 245 242 238 235 234 232 230 229 230 232 232 233 235 237 239 240 242 243 244 246 247
326 327 327 329 330 329 328 329 331 331 331 330 330 328 325 322 320 318 317 319 321 320 314 301 287 278 272 265 261 261 263 265 267 269 270 270 269 266 264 268 273 273 273 271 269 268 263 257 255 252 249 246 242 242 247 252 253 253 255 257 259 258 255 251 247 245 241 237 235 234 233 231 229 230 231 231 232 235 238 239 240 241 242 243 245
328 328 329 330 329 328 329 330 331 331 331 331 331 330 328 325 322 319 317 317 319 320 317 306 290 277 269 264 262 262 263 265 267 269 271 272 271 267 263 269 273 272 273 273 269 267 262 256 253 250 247 246 242 240 245 251 252 253 255 256 259 259 256 252 249 247 244 239 235 234 235 234 232 232 231 230 231 232 235 237 238 240 241 241 243
328 328 329 330 328 328 329 330 330 330 330 330 329 329 329 327 325 321 319 319 321 321 319 312 299 284 272 266 264 263 264 265 267 270 272 274 274 270 267 272 274 271 271 272 269 265 260 254 250 248 245 244 242 240 242 247 250 251 253 256 259 259 256 252 248 247 245 241 234 232 233 234 234 234 233 231 230 231 232 234 237 238 239 239 240
328 328 329 328 327 328 329 329 329 329 329 328 328 328 330 329 327 324 321 321 323 323 320 314 306 295 282 272 267 265 264 266 268 270 272 274 274 271 270 273 274 270 268 268 266 261 258 253 248 245 243 242 240 239 239 243 247 249 251 254 257 257 255 252 249 246 244 242 235 231 230 230 232 234 234 233 232 230 231 233 235 237 238 238 238
327 328 328 327 327 328 329 329 328 328 327 327 327 328 330 330 328 325 322 322 323 323 320 315 309 301 291 282 274 269 267 266 268 269 271 273 273 271 270 271 271 268 265 263 260 256 255 252 247 242 241 239 238 238 238 240 244 247 249 250 251 251 251 250 248 244 242 241 237 231 227 227 230 231 230 231 232 231 231 231 233 235 237 237 237
328 327 327 327 327 328 329 328 328 327 326 327 326 327 330 330 328 325 323 323 324 322 319 315 311 304 298 290 282 273 267 266 267 269 271 272 271 268 268 269 269 267 263 258 254 252 253 252 246 241 240 238 234 234 237 238 241 245 246 246 245 245 246 245 244 243 242 241 239 233 228 228 230 229 226 226 228 229 230 230 231 232 233 234 235
328 327 327 327 328 329 328 328 327 326 325 325 325 326 329 329 327 325 325 325 325 322 318 315 312 308 302 295 287 280 273 270 269 270 270 269 268 268 268 268 267 264 260 254 250 251 252 251 246 240 239 238 234 232 232 232 235 239 242 243 245 246 244 240 239 242 242 241 239 235 232 232 233 231 228 226 225 226 227 227 228 229 230 231 232
327 327 327 328 329 329 328 327 326 324 323 323 323 325 328 328 326 325 326 326 325 323 319 317 314 310 306 298 291 286 280 274 269 267 267 268 268 268 267 265 262 259 255 249 246 247 249 250 247 241 238 238 237 234 231 230 233 236 240 244 247 247 244 239 237 239 240 239 238 236 234 235 236 235 235 233 231 229 227 226 225 226 227 229 231
326 327 327 329 329 328 326 326 325 323 322 321 321 323 327 327 326 326 327 327 326 323 320 317 315 312 308 301 294 288 282 276 268 263 263 264 264 262 258 257 257 253 248 245 244 244 246 248 248 245 241 240 239 236 233 233 234 237 240 244 246 247 244 241 239 240 237 235 235 235 234 234 234 236 238 239 239 236 234 232 230 229 228 228 229
326 328 329 329 329 326 325 324 323 322 320 320 320 322 326 326 325 326 328 327 326 325 322 319 316 313 308 301 295 291 286 277 268 262 258 255 252 250 251 254 254 249 243 242 243 244 247 250 250 248 245 242 241 238 235 235 237 239 240 241 243 245 244 242 242 242 238 233 233 233 233 233 233 234 236 239 242 242 241 239 237 236 235 233 231
328 328 329 329 327 325 323 322 321 320 319 319 319 322 325 325 325 326 328 328 327 327 326 321 318 314 308 301 298 295 289 277 266 260 253 246 243 245 252 255 253 247 240 239 242 244 248 253 254 254 251 247 245 241 237 236 237 240 240 239 241 243 243 243 244 243 239 236 234 233 232 233 234 235 235 236 239 241 242 243 242 241 240 239 237
329 328 328 327 325 322 321 320 319 319 319 319 320 322 324 325 325 327 328 328 329 331 328 324 320 316 309 302 301 299 290 277 265 257 247 243 244 249 253 254 251 246 241 240 242 245 249 255 257 258 256 253 251 247 241 238 237 238 239 238 240 242 244 245 245 244 242 239 236 234 232 234 236 238 238 237 237 237 238 240 241 241 240 240 240
328 327 326 324 323 321 320 319 319 318 319 319 321 322 323 324 325 327 328 330 333 333 331 327 323 319 313 307 305 301 291 275 260 247 242 243 248 250 251 251 251 249 245 244 245 248 254 260 262 261 258 255 253 250 245 240 238 238 238 238 239 241 243 245 246 245 244 242 239 236 236 239 241 241 240 239 239 237 235 235 236 237 237 237 237
327 327 325 323 321 320 319 318 318 318 319 321 322 322 322 324 326 328 329 333 336 336 333 330 327 323 318 314 310 306 294 275 252 240 242 248 250 251 253 254 254 253 252 252 254 257 260 262 262 261 258 255 252 249 245 241 237 237 238 239 239 240 240 243 245 245 244 244 243 241 242 244 245 242 239 237 238 238 237 235 234 234 234 234 234
327 326 323 320 318 318 317 317 317 318 320 321 321 322 323 325 327 329 333 337 339 338 334 332 331 329 327 324 320 319 314 297 266 248 252 258 258 257 257 256 258 259 256 253 251 251 252 253 254 255 256 256 252 248 244 239 235 234 235 238 239 239 238 240 243 245 245 245 243 243 244 245 244 241 236 233 234 235 235 235 234 234 233 233 233
324 321 318 315 315 316 316 315 316 319 320 320 320 321 324 327 329 332 337 341 341 339 337 338 341 341 340 340 342 353 7 18 34 61 81 89 133 216 236 241 235 213 189 175 168 165 169 182 194 211 226 235 243 245 242 237 231 229 231 235 237 237 238 239 241 244 246 244 241 242 244 243 241 236 231 229 230 231 232 233 233 234 234 234 235
319 317 314 313 313 314 314 314 316 318 318 319 320 322 326 330 333 337 342 344 343 343 346 351 355 356 357 3 16 31 46 61 70 80 87 94 105 112 120 131 134 130 128 129 128 121 114 116 116 116 132 142 147 193 224 230 229 228 231 235 238 239 240 240 241 243 244 241 240 242 244 242 238 231 227 227 228 229 230 232 233 235 235 236 237
314 314 313 314 314 313 313 314 316 317 318 320 322 325 329 334 338 343 346 347 347 352 360 4 8 11 15 30 47 59 69 75 77 82 88 92 98 103 113 121 119 114 114 124 129 120 113 117 116 110 124 129 134 151 163 191 219 226 229 233 235 237 238 238 237 236 235 236 239 242 243 242 237 231 227 228 229 231 232 234 235 236 237 238 238
314 313 314 314 313 313 314 316 317 318 320 322 325 328 333 339 345 349 351 352 356 5 12 17 21 26 36 51 61 67 74 79 82 88 91 94 97 103 112 114 107 102 111 131 141 149 166 180 187 197 199 193 194 197 193 197 210 215 216 221 225 227 229 230 230 230 232 235 238 241 241 240 236 232 230 231 233 235 237 237 237 238 239 240 240
316 314 314 314 315 317 319 320 320 322 324 326 329 334 340 346 351 354 356 1 9 18 24 28 32 39 49 58 64 72 80 83 85 88 91 93 94 101 111 113 106 106 126 152 170 185 197 206 217 228 230 222 216 218 215 210 211 213 214 218 222 224 227 230 232 234 237 238 239 240 240 239 236 234 234 235 237 238 239 239 239 240 241 241 241
317 316 317 319 320 322 324 324 326 327 328 331 337 343 349 354 357 359 2 11 21 28 33 36 41 47 54 62 71 80 85 85 84 86 88 89 90 100 113 118 123 138 156 173 190 205 225 244 255 260 262 256 246 242 239 233 226 223 225 227 228 229 231 233 236 239 241 241 242 242 241 240 238 237 237 238 238 239 240 239 240 241 241 241 241
325 325 326 326 327 329 331 332 332 331 332 338 347 352 357 1 1 2 8 21 31 35 37 41 45 51 61 71 78 83 84 84 85 84 83 83 83 88 93 94 107 127 133 215 252 263 270 280 282 273 263 254 247 242 241 240 237 235 235 237 237 238 238 238 239 240 241 242 243 243 242 241 240 240 241 242 243 243 243 243 242 242 243 243 241
335 335 334 334 335 337 337 335 333 334 340 351 358 359 2 6 4 5 15 32 40 40 41 45 51 59 70 77 80 81 79 80 81 78 76 76 73 71 71 70 73 69 10 332 318 305 290 285 283 275 266 258 255 252 248 244 242 240 240 241 241 242 243 244 245 244 244 244 243 243 242 242 242 243 243 245 247 247 248 248 247 246 245 245 244
342 341 341 341 341 342 340 337 338 344 353 2 5 5 7 8 7 10 23 40 46 47 48 52 58 68 77 79 80 77 73 75 76 73 73 75 71 66 60 39 25 20 11 350 327 311 300 294 289 286 282 275 267 262 257 253 250 248 247 246 246 246 247 248 250 250 250 251 250 250 248 245 244 245 245 246 248 248 248 248 250 251 251 250 250
346 345 345 344 344 344 343 343 349 357 3 7 10 11 11 10 10 15 28 45 52 54 56 59 66 77 82 83 81 75 69 67 62 54 52 53 47 39 30 25 23 19 4 338 319 308 303 298 292 288 286 282 275 269 264 261 259 257 255 254 252 252 251 251 252 252 252 252 252 252 252 251 249 247 247 248 248 247 247 247 248 251 253 254 254
347 347 347 346 347 349 351 355 2 6 8 10 14 16 14 12 14 20 34 49 54 58 63 68 75 81 81 76 70 64 61 60 50 38 29 23 20 20 23 25 17 1 344 330 320 312 307 303 298 293 287 280 274 270 268 266 265 264 263 261 258 257 256 256 256 256 255 254 253 252 251 250 249 247 247 246 243 241 245 248 250 252 253 253 254
349 349 350 351 353 357 3 8 10 11 12 13 16 19 18 16 19 27 42 54 55 59 68 73 78 77 68 58 50 44 44 44 34 22 14 3 356 9 24 21 4 353 346 340 331 323 318 314 309 303 295 284 275 270 267 266 267 268 268 268 267 265 263 261 259 256 255 254 253 252 249 245 244 244 245 244 243 242 245 249 251 252 252 251 252
352 353 355 358 2 7 13 15 15 17 18 17 19 21 20 20 22 29 46 60 57 58 66 73 74 62 49 44 39 34 33 25 12 16 28 25 12 11 19 10 0 357 353 344 335 329 326 321 314 308 302 291 279 271 268 269 270 271 271 270 269 268 265 262 255 246 242 243 244 243 239 233 233 236 239 241 242 242 244 246 248 249 249 249 249
356 357 359 3 10 16 20 20 20 22 21 22 25 24 22 22 23 29 48 61 58 57 58 59 56 44 37 39 34 28 21 10 5 19 31 25 18 16 13 7 4 360 353 345 341 340 339 335 331 334 334 320 299 284 278 278 279 278 276 271 262 253 250 249 242 232 228 230 232 231 227 224 225 228 231 233 235 238 241 243 245 246 245 244 242
0 2 4 9 15 21 22 23 24 24 24 25 26 26 25 26 25 32 46 56 58 56 52 51 52 49 48 44 34 30 24 12 7 11 10 12 20 19 7 4 5 360 355 354 355 358 4 16 31 32 23 16 13 15 8 343 330 317 295 271 249 230 217 220 223 221 222 226 228 226 224 224 225 228 231 234 237 240 242 243 243 242 239 235 231
4 7 10 14 19 23 24 25 26 25 25 27 27 26 27 29 30 38 48 53 56 54 49 50 55 53 47 40 34 33 29 16 7 1 352 353 7 12 5 3 2 359 359 3 7 11 17 24 31 30 27 28 35 40 42 38 29 21 4 326 287 261 245 239 232 228 229 233 232 229 226 226 229 232 236 240 243 243 242 240 238 236 233 229 226
9 13 15 19 22 24 25 27 27 27 27 28 29 29 29 30 34 42 50 54 58 56 54 55 57 56 47 39 33 26 14 7 8 7 353 341 341 346 356 3 2 1 6 9 9 12 16 20 27 31 30 31 39 45 45 42 37 29 12 347 331 314 284 263 248 236 232 230 228 225 221 218 219 221 223 227 233 237 236 233 229 227 224 222 220
13 17 20 24 26 26 27 28 29 28 28 29 31 32 32 34 38 44 52 57 58 58 59 56 53 49 40 29 22 14 5 1 6 14 6 348 333 331 341 354 359 3 11 13 11 13 14 17 25 33 35 34 40 44 42 38 33 27 16 8 10 5 341 304 268 249 239 233 228 223 215 207 206 208 207 206 210 218 222 219 216 215 215 215 214
Height
3035 3033 3031 3029 3027 3025 3022 3019 3017 3014 3011 3008 3005 3002 3000 2997 2994 2991 2988 2986 2984 2982 2979 2976 2974 2972 2970 2968 2967 2966 2966 2966 2967 2967 2966 2966 2966 2967 2966 2963 2964 2967 2967 2968 2969 2970 2972 2973 2975 2977 2978 2979 2981 2982 2984 2986 2989 2991 2991 2991 2993 2995 2997 3000 3003 3006 3008 3009 3011 3014 3017 3020 3022 3024 3026 3028 3030 3032 3034 3036 3038 3040 3042 3044 3046
3033 3031 3028 3026 3024 3021 3018 3015 3012 3009 3006 3003 3000 2997 2994 2991 2989 2985 2983 2980 2978 2976 2973 2970 2968 2965 2963 2961 2960 2958 2958 2957 2957 2957 2957 2956 2956 2957 2957 2956 2955 2957 2958 2958 2959 2960 2962 2963 2965 2967 2968 2970 2972 2974 2977 2978 2981 2983 2984 2985 2985 2987 2989 2992 2995 2997 2998 3001 3004 3006 3008 3011 3014 3016 3019 3021 3024 3026 3028 3030 3032 3035 3037 3040 3042
3030 3028 3025 3023 3020 3017 3014 3010 3007 3004 3001 2998 2994 2991 2988 2985 2982 2979 2977 2974 2971 2969 2967 2964 2962 2960 2958 2956 2954 2952 2951 2951 2950 2950 2949 2948 2948 2948 2948 2948 2947 2948 2949 2950 2950 2951 2952 2953 2955 2957 2958 2960 2962 2965 2968 2970 2973 2975 2977 2978 2979 2979 2981 2984 2986 2988 2991 2995 2998 2997 2999 3003 3005 3007 3010 3014 3017 3019 3021 3024 3027 3030 3033 3035 3037
3027 3024 3022 3019 3016 3012 3009 3005 3002 2999 2996 2992 2989 2985 2982 2979 2975 2973 2971 2969 2966 2964 2962 2959 2956 2955 2953 2951 2949 2948 2946 2946 2944 2944 2943 2942 2941 2941 2941 2941 2940 2941 2943 2943 2943 2943 2944 2944 2945 2947 2949 2950 2952 2954 2958 2961 2964 2967 2970 2971 2972 2972 2974 2976 2978 2980 2984 2987 2988 2989 2993 2995 2994 2999 3005 3008 3010 3013 3015 3019 3022 3025 3028 3030 3032
3024 3021 3018 3015 3011 3008 3004 3000 2996 2993 2989 2986 2983 2979 2976 2973 2970 2968 2966 2963 2961 2959 2957 2954 2951 2949 2947 2946 2945 2943 2942 2941 2939 2938 2937 2936 2935 2935 2935 2936 2935 2934 2936 2937 2936 2937 2937 2937 2937 2938 2939 2941 2942 2944 2947 2951 2954 2958 2961 2963 2965 2965 2967 2968 2970 2973 2976 2978 2979 2982 2985 2985 2987 2995 2998 2999 3003 3007 3010 3014 3016 3019 3022 3025 3027
3021 3017 3014 3010 3006 3002 2999 2995 2991 2987 2984 2981 2977 2974 2971 2968 2965 2963 2961 2958 2955 2953 2951 2949 2946 2944 2942 2940 2939 2937 2936 2935 2934 2932 2931 2931 2930 2930 2930 2930 2929 2929 2929 2930 2930 2930 2930 2930 2930 2930 2931 2932 2934 2936 2937 2940 2944 2948 2951 2954 2957 2958 2960 2961 2962 2965 2968 2970 2971 2973 2976 2979 2984 2989 2990 2992 2997 3000 3003 3006 3010 3013 3016 3019 3022
3017 3014 3010 3006 3001 2997 2994 2990 2986 2982 2978 2975 2973 2969 2966 2963 2961 2958 2956 2953 2950 2948 2946 2944 2942 2939 2937 2935 2933 2931 2929 2929 2929 2927 2925 2924 2924 2924 2924 2924 2924 2923 2923 2924 2923 2923 2923 2924 2924 2924 2924 2924 2926 2928 2929 2932 2935 2938 2940 2944 2947 2950 2952 2953 2955 2958 2960 2962 2964 2966 2970 2973 2976 2978 2981 2985 2989 2992 2996 2999 3003 3006 3009 3012 3015
3013 3009 3005 3001 2997 2993 2989 2985 2981 2977 2973 2970 2967 2964 2961 2958 2956 2953 2951 2948 2945 2943 2941 2939 2936 2934 2932 2930 2928 2926 2924 2923 2922 2921 2920 2919 2918 2917 2917 2917 2917 2917 2917 2917 2917 2917 2917 2917 2917 2918 2917 2918 2919 2920 2922 2924 2926 2928 2931 2934 2937 2941 2943 2945 2948 2951 2951 2954 2958 2960 2963 2966 2968 2970 2974 2978 2980 2984 2989 2992 2996 3000 3002 3005 3009
3009 3005 3000 2996 2992 2988 2983 2979 2975 2971 2967 2964 2961 2958 2955 2953 2951 2948 2945 2943 2941 2938 2936 2933 2931 2929 2927 2925 2923 2921 2919 2917 2916 2916 2915 2913 2912 2911 2911 2911 2911 2911 2911 2911 2911 2911 2911 2911 2911 2911 2911 2912 2912 2913 2915 2917 2918 2920 2922 2925 2928 2932 2934 2936 2939 2942 2944 2947 2950 2953 2956 2959 2961 2963 2966 2969 2972 2976 2980 2983 2988 2991 2993 2998 3002
3005 3001 2996 2992 2987 2982 2978 2973 2969 2965 2961 2959 2956 2953 2950 2948 2945 2942 2940 2938 2936 2934 2932 2928 2925 2923 2921 2919 2917 2915 2914 2912 2910 2909 2908 2907 2906 2905 2904 2904 2904 2904 2904 2904 2905 2905 2905 2905 2905 2905 2905 2906 2906 2907 2908 2910 2911 2913 2915 2918 2920 2923 2926 2929 2931 2934 2937 2940 2942 2945 2947 2951 2953 2955 2958 2961 2964 2968 2972 2975 2980 2982 2985 2991 2996
3000 2995 2991 2986 2982 2977 2972 2967 2962 2959 2956 2953 2950 2947 2945 2942 2939 2936 2934 2932 2930 2929 2927 2923 2919 2917 2915 2913 2911 2909 2907 2906 2904 2903 2901 2900 2899 2898 2897 2898 2898 2897 2897 2898 2898 2899 2899 2899 2899 2899 2900 2900 2900 2901 2902 2904 2905 2907 2909 2911 2912 2915 2918 2921 2924 2927 2929 2932 2935 2937 2939 2942 2945 2948 2952 2955 2958 2961 2965 2968 2972 2976 2980 2985 2989
2993 2989 2985 2980 2975 2970 2965 2960 2957 2954 2950 2947 2944 2941 2938 2936 2933 2930 2927 2926 2924 2923 2921 2918 2914 2911 2909 2907 2905 2904 2902 2899 2898 2896 2894 2893 2892 2891 2890 2890 2890 2891 2891 2891 2892 2892 2892 2893 2893 2893 2894 2895 2895 2896 2897 2898 2899 2900 2901 2903 2905 2908 2910 2913 2916 2919 2922 2924 2927 2930 2932 2935 2938 2941 2946 2949 2951 2955 2959 2961 2965 2969 2973 2977 2981
2990 2985 2981 2975 2969 2963 2958 2954 2952 2949 2945 2942 2938 2935 2932 2929 2927 2923 2920 2919 2917 2916 2914 2910 2907 2905 2904 2902 2900 2897 2895 2893 2891 2890 2888 2887 2885 2884 2883 2883 2883 2883 2884 2884 2885 2885 2885 2886 2887 2887 2888 2889 2890 2891 2892 2893 2893 2894 2895 2896 2899 2901 2903 2905 2908 2912 2915 2917 2920 2923 2925 2928 2931 2935 2939 2942 2944 2949 2952 2954 2958 2961 2965 2969 2972
2986 2981 2976 2970 2964 2958 2953 2949 2946 2943 2940 2937 2933 2930 2926 2923 2920 2917 2914 2912 2910 2907 2904 2901 2899 2899 2898 2896 2894 2892 2889 2887 2885 2884 2882 2881 2879 2878 2876 2876 2876 2876 2877 2877 2878 2878 2879 2880 2881 2882 2883 2884 2885 2885 2886 2887 2888 2888 2889 2890 2892 2895 2897 2898 2901 2904 2907 2910 2913 2916 2918 2921 2924 2929 2932 2934 2937 2940 2944 2948 2951 2953 2957 2960 2962
2981 2976 2971 2965 2959 2954 2949 2945 2942 2938 2935 2931 2928 2924 2920 2916 2913 2910 2906 2904 2903 2899 2896 2893 2891 2892 2892 2890 2888 2886 2883 2881 2878 2877 2875 2874 2873 2872 2871 2870 2869 2869 2870 2870 2871 2871 2872 2874 2875 2876 2878 2879 2879 2880 2881 2882 2882 2883 2884 2885 2886 2888 2890 2892 2894 2897 2900 2903 2906 2909 2912 2914 2918 2922 2925 2928 2930 2933 2937 2942 2944 2946 2949 2951 2954
2974 2969 2964 2959 2954 2950 2945 2941 2938 2933 2929 2926 2922 2918 2914 2910 2907 2903 2900 2897 2894 2892 2889 2887 2885 2884 2884 2883 2881 2879 2877 2874 2871 2869 2868 2867 2866 2866 2865 2864 2863 2863 2863 2864 2864 2865 2865 2867 2869 2870 2872 2873 2874 2875 2876 2877 2877 2877 2878 2880 2881 2883 2884 2886 2888 2891 2894 2897 2900 2902 2905 2907 2911 2915 2918 2921 2924 2927 2930 2934 2937 2939 2942 2944 2946
2969 2964 2959 2954 2950 2945 2941 2938 2933 2928 2924 2920 2916 2913 2909 2905 2901 2897 2894 2890 2887 2884 2881 2878 2877 2876 2875 2875 2874 2872 2869 2866 2864 2862 2860 2859 2859 2860 2859 2858 2857 2857 2857 2857 2858 2859 2859 2860 2862 2864 2866 2867 2868 2869 2870 2872 2873 2873 2873 2874 2876 2877 2878 2879 2882 2884 2887 2890 2893 2895 2898 2900 2904 2907 2910 2914 2917 2920 2923 2926 2929 2932 2935 2937 2938
2964 2959 2955 2950 2945 2941 2938 2933 2928 2923 2918 2914 2910 2907 2903 2899 2895 2891 2887 2884 2880 2876 2873 2870 2869 2868 2868 2867 2865 2862 2860 2858 2855 2853 2851 2850 2852 2854 2853 2852 2852 2851 2851 2851 2852 2853 2853 2854 2855 2857 2859 2861 2863 2864 2865 2866 2867 2868 2869 2869 2871 2872 2872 2873 2876 2878 2881 2884 2886 2889 2891 2894 2897 2900 2903 2907 2910 2913 2916 2919 2922 2925 2928 2930 2931
2960 2954 2950 2945 2941 2937 2933 2928 2923 2918 2913 2908 2904 2900 2896 2893 2889 2885 2881 2878 2874 2870 2867 2864 2862 2861 2860 2859 2856 2853 2851 2849 2847 2845 2843 2843 2846 2848 2848 2847 2846 2845 2845 2845 2845 2846 2847 2848 2849 2850 2852 2855 2857 2859 2860 2861 2862 2863 2864 2865 2866 2867 2867 2868 2870 2872 2875 2877 2879 2882 2885 2888 2891 2894 2896 2900 2903 2906 2909 2912 2915 2918 2921 2923 2926
2954 2949 2945 2941 2937 2933 2928 2923 2917 2912 2907 2903 2898 2894 2889 2886 2882 2878 2874 2871 2868 2864 2860 2857 2855 2853 2852 2850 2848 2846 2844 2842 2839 2837 2836 2837 2839 2841 2842 2841 2840 2839 2839 2839 2839 2840 2841 2841 2843 2844 2846 2848 2851 2853 2855 2856 2857 2858 2859 2860 2861 2862 2862 2863 2865 2867 2869 2871 2873 2876 2880 2883 2886 2888 2890 2893 2896 2899 2902 2906 2909 2911 2914 2917 2920
2950 2945 2940 2936 2933 2928 2923 2918 2913 2908 2902 2897 2893 2888 2883 2879 2874 2870 2866 2862 2858 2855 2852 2849 2846 2844 2842 2841 2840 2838 2835 2832 2830 2829 2829 2830 2833 2835 2835 2834 2833 2833 2833 2833 2834 2834 2835 2835 2837 2838 2840 2843 2845 2847 2850 2852 2852 2853 2855 2856 2857 2857 2857 2858 2860 2861 2863 2865 2868 2871 2874 2878 2881 2882 2884 2886 2889 2892 2896 2899 2902 2905 2907 2910 2913
2945 2941 2936 2932 2928 2923 2918 2913 2908 2902 2897 2892 2887 2882 2877 2872 2867 2862 2858 2854 2850 2846 2842 2839 2836 2834 2832 2830 2829 2827 2825 2823 2822 2821 2821 2823 2826 2827 2828 2827 2826 2826 2826 2827 2828 2828 2829 2829 2831 2832 2834 2837 2839 2842 2844 2846 2847 2848 2849 2851 2852 2852 2853 2853 2855 2856 2858 2861 2863 2865 2869 2873 2876 2877 2879 2881 2883 2886 2889 2892 2895 2898 2901 2904 2907
2941 2936 2932 2928 2923 2918 2912 2907 2902 2897 2892 2887 2881 2876 2870 2865 2860 2856 2851 2847 2842 2838 2834 2830 2827 2825 2822 2820 2819 2817 2816 2814 2812 2812 2813 2816 2817 2818 2819 2819 2819 2819 2819 2820 2821 2822 2822 2823 2825 2827 2828 2830 2833 2836 2839 2841 2842 2843 2844 2846 2847 2848 2848 2849 2850 2852 2854 2856 2858 2860 2864 2868 2870 2872 2874 2876 2878 2881 2883 2886 2889 2892 2895 2898 2901
2937 2932 2928 2923 2918 2913 2907 2902 2897 2892 2886 2881 2875 2870 2864 2859 2854 2849 2844 2840 2835 2830 2825 2822 2819 2816 2813 2811 2809 2807 2805 2803 2803 2804 2806 2807 2808 2809 2810 2811 2812 2813 2813 2813 2814 2815 2816 2817 2819 2821 2823 2825 2827 2830 2832 2835 2837 2838 2839 2841 2842 2844 2844 2845 2847 2848 2850 2852 2853 2856 2859 2862 2865 2867 2870 2872 2874 2876 2878 2880 2883 2886 2889 2892 2895
2932 2927 2923 2918 2913 2908 2903 2897 2892 2886 2880 2875 2869 2864 2858 2853 2847 2842 2837 2832 2828 2822 2817 2813 2810 2807 2805 2803 2800 2797 2796 2795 2796 2797 2798 2798 2798 2800 2803 2804 2805 2806 2807 2807 2809 2810 2811 2812 2813 2815 2817 2819 2821 2823 2826 2829 2831 2832 2834 2836 2838 2839 2841 2842 2843 2845 2846 2848 2849 2852 2855 2857 2858 2862 2865 2867 2870 2872 2874 2876 2878 2881 2884 2886 2889
2927 2923 2918 2913 2908 2903 2898 2893 2887 2881 2875 2869 2863 2858 2852 2846 2841 2835 2830 2825 2820 2814 2809 2805 2802 2799 2797 2794 2792 2789 2788 2787 2788 2789 2789 2790 2791 2794 2796 2797 2798 2799 2800 2801 2803 2805 2806 2806 2808 2809 2811 2813 2815 2818 2821 2823 2825 2827 2829 2831 2833 2835 2837 2839 2840 2841 2843 2844 2846 2848 2850 2851 2853 2856 2860 2862 2865 2867 2869 2872 2874 2876 2879 2881 2883
2923 2918 2913 2908 2903 2898 2893 2888 2882 2877 2871 2864 2858 2852 2845 2839 2833 2829 2824 2818 2812 2807 2802 2798 2795 2792 2789 2786 2784 2782 2781 2780 2781 2782 2783 2784 2785 2787 2788 2790 2791 2793 2795 2796 2797 2799 2801 2802 2803 2804 2805 2807 2810 2813 2815 2818 2820 2822 2825 2828 2829 2831 2833 2835 2836 2838 2839 2841 2842 2844 2845 2847 2850 2852 2855 2857 2859 2862 2865 2867 2870 2872 2874 2876 2877
2918 2913 2908 2902 2897 2892 2887 2882 2877 2871 2865 2860 2853 2847 2841 2833 2827 2822 2817 2811 2806 2800 2796 2792 2789 2785 2782 2779 2777 2776 2775 2774 2774 2775 2776 2778 2779 2780 2782 2784 2786 2788 2789 2791 2793 2795 2796 2798 2798 2799 2801 2802 2804 2807 2810 2813 2815 2818 2821 2824 2826 2827 2829 2831 2832 2834 2836 2837 2839 2840 2841 2843 2846 2849 2851 2852 2854 2856 2859 2862 2865 2867 2869 2870 2873
2913 2908 2903 2898 2892 2887 2881 2876 2870 2865 2858 2852 2847 2841 2835 2828 2821 2816 2810 2805 2799 2794 2790 2786 2782 2779 2776 2772 2771 2770 2769 2768 2769 2770 2772 2773 2774 2776 2778 2779 2781 2783 2785 2787 2789 2791 2793 2794 2795 2796 2797 2798 2799 2802 2805 2808 2811 2814 2817 2819 2821 2823 2825 2827 2828 2830 2832 2834 2835 2836 2838 2840 2842 2844 2846 2848 2850 2852 2853 2856 2859 2861 2863 2865 2867
2908 2903 2898 2893 2887 2881 2876 2870 2864 2858 2852 2846 2840 2834 2828 2822 2816 2810 2804 2799 2793 2789 2785 2780 2776 2773 2770 2767 2766 2765 2764 2764 2765 2767 2769 2771 2772 2774 2775 2776 2778 2779 2782 2784 2786 2787 2789 2789 2791 2792 2793 2794 2796 2798 2801 2803 2806 2809 2812 2814 2817 2819 2821 2823 2825 2826 2828 2830 2832 2833 2835 2837 2838 2840 2841 2843 2845 2847 2849 2852 2854 2856 2858 2860 2862
2903 2899 2893 2887 2882 2876 2870 2864 2858 2852 2846 2841 2835 2829 2822 2817 2811 2805 2799 2793 2789 2784 2780 2775 2771 2768 2766 2763 2762 2761 2761 2761 2762 2765 2767 2769 2770 2771 2772 2773 2775 2776 2779 2781 2782 2784 2785 2785 2786 2787 2789 2790 2791 2793 2796 2798 2801 2804 2807 2810 2812 2814 2817 2819 2821 2822 2824 2826 2828 2829 2832 2833 2835 2836 2837 2839 2841 2843 2845 2847 2849 2851 2853 2855 2857
2897 2893 2887 2881 2876 2870 2864 2858 2852 2847 2841 2836 2830 2823 2817 2812 2807 2800 2794 2789 2784 2780 2775 2772 2768 2765 2762 2760 2759 2759 2759 2759 2761 2763 2765 2767 2768 2769 2770 2771 2773 2774 2776 2778 2780 2781 2782 2782 2783 2783 2784 2785 2786 2788 2790 2792 2796 2799 2802 2805 2807 2810 2813 2815 2817 2819 2820 2822 2824 2825 2827 2829 2830 2832 2833 2835 2837 2839 2841 2843 2844 2846 2848 2851 2853
2892 2887 2881 2875 2870 2865 2859 2853 2847 2842 2837 2831 2825 2818 2813 2807 2802 2796 2790 2785 2781 2777 2773 2769 2765 2762 2760 2759 2758 2757 2758 2759 2760 2762 2764 2765 2766 2768 2769 2770 2772 2773 2775 2776 2778 2779 2780 2780 2780 2781 2781 2781 2782 2783 2784 2786 2790 2793 2797 2800 2802 2805 2808 2811 2813 2815 2817 2818 2820 2822 2823 2824 2826 2828 2829 2831 2833 2835 2837 2838 2840 2841 2844 2846 2849
2888 2882 2876 2870 2865 2860 2854 2848 2843 2838 2833 2826 2820 2814 2810 2805 2799 2793 2788 2783 2779 2775 2771 2767 2764 2762 2760 2759 2758 2758 2758 2759 2761 2762 2764 2765 2766 2767 2769 2770 2771 2773 2774 2775 2777 2778 2779 2779 2779 2780 2779 2779 2780 2780 2781 2783 2785 2789 2793 2796 2798 2801 2804 2806 2809 2811 2813 2814 2816 2817 2819 2820 2822 2824 2825 2827 2829 2831 2833 2834 2835 2837 2839 2842 2844
2882 2876 2871 2865 2860 2855 2848 2843 2838 2833 2828 2821 2815 2810 2806 2801 2796 2790 2786 2782 2778 2775 2771 2767 2764 2762 2761 2760 2759 2759 2759 2760 2762 2763 2764 2766 2767 2768 2769 2770 2772 2773 2775 2776 2777 2778 2779 2779 2779 2779 2779 2779 2779 2780 2780 2782 2784 2787 2790 2793 2795 2797 2800 2802 2805 2807 2809 2811 2812 2813 2815 2816 2818 2819 2822 2824 2825 2827 2829 2830 2832 2833 2835 2837 2839
2877 2872 2866 2861 2855 2849 2843 2838 2834 2828 2822 2817 2811 2806 2802 2797 2793 2788 2785 2781 2778 2774 2771 2768 2766 2764 2763 2762 2761 2761 2762 2763 2764 2765 2766 2767 2768 2769 2770 2772 2773 2775 2776 2777 2779 2779 2780 2780 2779 2779 2780 2780 2780 2780 2781 2783 2784 2786 2788 2790 2792 2794 2796 2798 2801 2803 2805 2807 2808 2809 2811 2812 2814 2816 2818 2820 2822 2824 2825 2826 2828 2830 2831 2833 2835
2873 2868 2862 2856 2850 2845 2839 2834 2829 2823 2818 2813 2807 2802 2798 2795 2791 2787 2784 2781 2778 2775 2772 2770 2768 2767 2766 2765 2765 2765 2765 2766 2767 2767 2768 2769 2770 2771 2772 2774 2775 2777 2778 2779 2779 2780 2779 2779 2779 2779 2779 2780 2781 2781 2782 2783 2784 2786 2787 2789 2790 2791 2793 2795 2797 2799 2801 2803 2804 2805 2807 2809 2810 2812 2814 2816 2818 2820 2821 2822 2824 2826 2828 2829 2831
2867 2861 2855 2850 2845 2840 2835 2829 2824 2819 2814 2809 2804 2800 2796 2793 2790 2787 2784 2782 2779 2777 2774 2773 2772 2770 2769 2769 2768 2768 2768 2769 2770 2770 2771 2772 2772 2773 2775 2776 2777 2778 2779 2779 2779 2779 2779 2779 2779 2779 2779 2780 2780 2781 2781 2782 2783 2784 2786 2787 2788 2789 2790 2792 2793 2795 2797 2798 2800 2802 2804 2805 2807 2809 2811 2813 2814 2815 2817 2818 2820 2822 2824 2825 2828
2861 2854 2849 2844 2839 2835 2830 2825 2820 2815 2810 2805 2801 2798 2795 2792 2789 2787 2784 2782 2780 2779 2777 2776 2775 2773 2773 2772 2772 2772 2772 2772 2773 2773 2774 2774 2775 2776 2777 2778 2779 2779 2779 2779 2779 2779 2779 2779 2779 2779 2779 2780 2780 2781 2781 2781 2782 2783 2784 2784 2785 2786 2787 2789 2790 2791 2793 2794 2796 2798 2800 2802 2804 2806 2808 2809 2810 2811 2813 2815 2817 2818 2819 2821 2824
2854 2849 2844 2839 2835 2830 2826 2821 2815 2810 2806 2803 2800 2797 2794 2792 2789 2787 2785 2784 2782 2781 2779 2778 2777 2776 2776 2775 2775 2775 2775 2775 2775 2776 2776 2777 2777 2778 2779 2779 2780 2780 2780 2780 2780 2780 2780 2779 2779 2779 2779 2779 2779 2779 2780 2780 2781 2781 2782 2782 2783 2784 2785 2786 2787 2788 2789 2790 2792 2794 2796 2797 2800 2802 2803 2805 2806 2807 2808 2811 2812 2813 2814 2818 2821
2849 2845 2840 2836 2832 2827 2823 2817 2812 2808 2804 2802 2799 2796 2794 2792 2790 2788 2786 2785 2784 2783 2782 2781 2780 2779 2779 2779 2778 2778 2778 2778 2778 2778 2779 2779 2779 2780 2780 2780 2780 2780 2780 2781 2780 2780 2780 2779 2779 2778 2778 2778 2777 2777 2777 2778 2778 2779 2779 2779 2780 2780 2781 2782 2783 2784 2785 2786 2788 2789 2791 2793 2795 2797 2798 2800 2801 2803 2804 2805 2806 2808 2810 2813 2814
2847 2842 2838 2833 2829 2825 2820 2815 2810 2807 2804 2801 2799 2796 2794 2792 2790 2788 2787 2786 2786 2785 2785 2784 2783 2782 2782 2782 2782 2781 2781 2781 2781 2781 2781 2781 2781 2781 2781 2781 2781 2781 2781 2781 2780 2780 2779 2779 2778 2777 2777 2776 2775 2775 2775 2774 2774 2774 2775 2775 2776 2777 2777 2778 2778 2779 2780 2781 2783 2785 2786 2789 2791 2792 2794 2795 2797 2798 2799 2800 2801 2802 2804 2806 2807
2844 2840 2835 2830 2826 2822 2817 2812 2809 2806 2804 2802 2799 2797 2794 2792 2791 2789 2788 2788 2788 2788 2787 2786 2785 2785 2785 2784 2784 2784 2784 2783 2783 2783 2783 2782 2782 2782 2782 2782 2782 2782 2781 2781 2780 2779 2778 2777 2776 2775 2774 2773 2772 2771 2771 2770 2770 2770 2771 2771 2772 2773 2773 2773 2773 2774 2776 2777 2778 2779 2781 2783 2785 2787 2789 2791 2792 2794 2794 2795 2796 2797 2798 2800 2801
2843 2838 2833 2829 2824 2820 2816 2812 2809 2807 2804 2802 2799 2797 2795 2793 2792 2791 2790 2790 2790 2789 2789 2788 2788 2787 2787 2787 2786 2786 2786 2786 2785 2785 2784 2784 2783 2783 2783 2782 2782 2782 2781 2780 2779 2778 2776 2775 2773 2772 2770 2769 2768 2767 2767 2766 2766 2766 2767 2767 2768 2768 2769 2768 2768 2769 2770 2771 2773 2774 2775 2777 2779 2781 2783 2785 2787 2789 2790 2791 2791 2792 2793 2795 2795
2842 2837 2832 2828 2823 2819 2816 2813 2811 2808 2805 2802 2800 2798 2796 2794 2793 2792 2792 2792 2791 2791 2791 2791 2790 2790 2789 2789 2788 2788 2788 2787 2787 2786 2786 2785 2784 2784 2783 2783 2783 2782 2781 2779 2778 2775 2773 2771 2769 2767 2766 2764 2763 2763 2763 2762 2762 2762 2762 2762 2763 2763 2762 2762 2762 2762 2763 2764 2766 2767 2769 2771 2773 2775 2777 2779 2781 2783 2785 2785 2786 2787 2789 2789 2790
2840 2835 2831 2827 2823 2820 2817 2815 2812 2809 2807 2804 2801 2799 2797 2796 2794 2794 2793 2793 2793 2793 2793 2792 2792 2792 2791 2791 2790 2790 2789 2789 2788 2788 2787 2786 2785 2785 2784 2784 2783 2782 2780 2778 2775 2773 2770 2768 2766 2763 2762 2760 2760 2759 2759 2759 2759 2759 2758 2758 2758 2757 2757 2756 2756 2756 2757 2758 2760 2761 2763 2764 2767 2769 2771 2773 2775 2777 2779 2780 2781 2783 2783 2783 2785
2839 2834 2830 2826 2823 2821 2819 2816 2814 2811 2808 2805 2803 2801 2799 2797 2796 2795 2795 2795 2795 2795 2794 2794 2794 2793 2793 2792 2792 2791 2791 2790 2789 2789 2788 2787 2786 2785 2785 2784 2783 2782 2780 2777 2774 2771 2769 2767 2764 2761 2760 2758 2758 2757 2757 2757 2757 2756 2756 2755 2755 2754 2754 2753 2753 2754 2755 2756 2757 2758 2759 2761 2763 2765 2767 2769 2771 2773 2775 2776 2777 2778 2778 2779 2781
2840 2835 2831 2827 2825 2822 2820 2818 2815 2812 2809 2807 2805 2803 2801 2799 2798 2797 2797 2797 2797 2797 2796 2796 2796 2795 2794 2794 2793 2793 2792 2791 2790 2789 2788 2788 2787 2786 2785 2784 2783 2781 2779 2777 2774 2771 2768 2765 2763 2761 2759 2759 2758 2757 2757 2757 2756 2756 2755 2754 2754 2753 2753 2753 2753 2754 2755 2755 2756 2757 2758 2760 2762 2763 2765 2767 2768 2770 2771 2772 2773 2774 2775 2776 2778
2840 2836 2832 2828 2826 2824 2821 2819 2816 2814 2811 2809 2807 2805 2803 2801 2800 2799 2799 2799 2799 2798 2798 2798 2797 2797 2796 2795 2795 2794 2793 2792 2791 2790 2789 2788 2787 2787 2786 2784 2782 2780 2778 2775 2773 2770 2768 2765 2763 2761 2760 2760 2759 2758 2758 2757 2757 2756 2755 2755 2754 2753 2753 2753 2753 2753 2754 2755 2755 2756 2758 2759 2760 2762 2763 2765 2766 2767 2768 2769 2770 2772 2773 2774 2775
2841 2837 2833 2831 2828 2826 2824 2821 2818 2816 2813 2811 2809 2807 2805 2803 2802 2802 2801 2801 2801 2800 2800 2799 2799 2798 2798 2797 2796 2795 2794 2793 2793 2792 2790 2789 2787 2786 2786 2785 2783 2781 2778 2775 2773 2771 2768 2766 2764 2763 2762 2761 2760 2759 2759 2758 2758 2757 2756 2756 2755 2754 2754 2753 2753 2753 2753 2754 2754 2755 2756 2757 2759 2760 2761 2763 2764 2765 2767 2767 2768 2769 2771 2772 2773
2842 2838 2835 2833 2830 2828 2826 2824 2821 2818 2816 2813 2811 2809 2807 2806 2805 2804 2804 2803 2803 2802 2802 2801 2801 2800 2799 2798 2798 2797 2795 2794 2793 2793 2792 2790 2788 2787 2786 2785 2784 2782 2780 2777 2775 2772 2770 2768 2767 2765 2764 2763 2762 2761 2760 2760 2759 2759 2758 2757 2756 2755 2754 2753 2753 2752 2752 2752 2753 2753 2754 2756 2757 2758 2759 2761 2762 2764 2765 2766 2767 2768 2769 2771 2772